Flag for India Weather past 2 weeks in Ahmedabad, Gujarat, India

Now
91 °F

Broken clouds.


Feels Like: 108 °F
Forecast: 82 / 95 °F
Wind: 6 mph from West

Location: Ahmadabad Airport

Current Time: Aug 30, 2015 at 11:49:53 AM

Latest Report: Aug 30, 2015 at 11:10 AM


Visibility: 4 mi

Pressure: 29.74 "Hg

Humidity: 67%

Dew point: 79 °F

Location of AhmedabadLocation

Historic Weather in Ahmedabad — Graph

°F

Ahmedabad temperature yesterday

Maximum temperature yesterday: 99 °F (at 4:40 PM)
Minimum temperature yesterday: 81 °F (at 5:40 AM)
Average temperature yesterday: 87 °F

Past Weeks' High & Low Weather Summary

 TemperatureHumidityPressure
High99 °F (Aug 29, 4:40 PM)94% (Aug 18, 6:10 PM)29.83 "Hg (Aug 18, 6:10 PM)
Low79 °F (Aug 18, 6:10 PM)44% (Aug 21, 4:40 PM)29.62 "Hg (Aug 15, 3:40 PM)
Average87 °F71%29.71 "Hg
* Reported Aug 15 10:10 AM — Aug 30 10:10 AM, Ahmedabad, Weather by CustomWeather, © 2015

Note: Actual official high and low records may vary slightly from our data, if they occured in-between our weather recording intervals... More about our weather records

Advertising

Ahmedabad weather history for previous 24 hours

 ConditionsComfort  
Time TempWeatherWind HumidityBarometerVisibility
10:10 AM
Sun, Aug 30
88 °FBroken clouds.7 mph70%29.74 "Hg3 mi
9:40 AM86 °FBroken clouds.6 mph75%29.74 "Hg3 mi
9:10 AM86 °FBroken clouds.6 mph75%29.74 "Hg3 mi
8:10 AM84 °FBroken clouds.6 mph79%29.74 "Hg2 mi
7:10 AM82 °FScattered clouds.7 mph79%29.71 "Hg2 mi
5:10 AM84 °FPassing clouds.6 mph74%29.68 "Hg2 mi
4:40 AM82 °FPassing clouds.7 mph84%29.68 "Hg2 mi
4:10 AM82 °FPassing clouds.6 mph84%29.68 "Hg2 mi
3:40 AM84 °FPassing clouds.6 mph79%29.68 "Hg2 mi
2:40 AM84 °FPassing clouds.7 mph79%29.68 "Hg2 mi
2:10 AM84 °FPassing clouds.6 mph79%29.68 "Hg2 mi
1:40 AM84 °FHaze.6 mph79%29.68 "Hg2 mi
12:40 AM86 °FHaze.8 mph75%29.68 "Hg2 mi
11:40 PM
Sat, Aug 29
86 °FHaze.8 mph75%29.71 "Hg2 mi
11:10 PM86 °FHaze.9 mph75%29.71 "Hg2 mi
10:40 PM86 °FHaze.7 mph75%29.71 "Hg2 mi
10:10 PM88 °FHaze.8 mph70%29.68 "Hg2 mi
9:40 PM88 °FHaze.6 mph75%29.68 "Hg2 mi
9:10 PM90 °FHaze.6 mph67%29.68 "Hg2 mi
8:40 PM90 °FHaze.6 mph63%29.65 "Hg2 mi
8:10 PM88 °FHaze.5 mph66%29.65 "Hg2 mi
7:40 PM90 °FPassing clouds.5 mph63%29.65 "Hg2 mi
6:40 PM93 °FPassing clouds.5 mph56%29.62 "Hg4 mi
6:10 PM95 °FPassing clouds.3 mph53%29.62 "Hg4 mi
5:40 PM97 °FPassing clouds.6 mph47%29.62 "Hg4 mi
5:10 PM99 °FPassing clouds.6 mph47%29.62 "Hg4 mi
4:40 PM99 °FScattered clouds.7 mph47%29.62 "Hg4 mi
2:40 PM97 °FScattered clouds.7 mph50%29.65 "Hg4 mi
1:40 PM95 °FScattered clouds.6 mph56%29.68 "Hg4 mi
12:40 PM93 °FScattered clouds.5 mph59%29.71 "Hg4 mi
Weather by CustomWeather, © 2015

See weather overviewHow to use our weather pages